This demonstration page uses our WeatherBlox Daily Observations layout. Learn more.

41.55636, -103.73856

Hourly Observations for May 23, 2018

Temp ( °F °C ) Dew Point ( °F °C ) Humidity (%) Winds ( mph kmh ) Pressure ( in mb ) Visibility ( mi km ) Precip ( " mm )
12:58 am 00:58 Mostly Cloudy 54 12.3 49 9.5 83 83 NW 10 17 29.85 1011 10 16.0934 N/A
1:58 am 01:58 Mostly Cloudy 53 11.5 50 9.9 90 90 NNW 12 19 29.83 1010 10 16.0934 N/A
2:58 am 02:58 Partly Cloudy 51 10.8 48 8.9 88 88 N 9 15 29.85 1011 10 16.0934 N/A
3:58 am 03:58 Mostly Clear 49 9.7 47 8.2 90 90 Calm 29.88 1012 10 16.0934 N/A
4:58 am 04:58 Partly Cloudy 51 10.3 48 8.7 90 90 Calm 29.9 1013 10 16.0934 N/A
5:58 am 05:58 Mostly Cloudy 51 10.4 47 8.2 86 86 WNW 5 7 29.91 1013 10 16.0934 0 0
6:58 am 06:58 Sunny 52 10.9 49 9.7 92 92 WNW 9 15 29.92 1013 10 16.0934 N/A
7:58 am 07:58 Sunny 54 12.1 51 10.3 89 89 WSW 5 7 29.93 1014 10 16.0934 N/A
8:58 am 08:58 Sunny 61 16.1 51 10.8 71 71 NW 5 7 29.85 1011 10 16.0934 N/A
9:58 am 09:58 Mostly Sunny 64 18 52 11 64 64 Calm 29.92 1013 10 16.0934 N/A
10:58 am 10:58 Sunny 68 20.1 47 8.1 46 46 Calm 29.9 1013 10 16.0934 N/A
11:58 am 11:58 Sunny 71 21.6 51 10.6 50 50 SSE 7 11 29.9 1013 10 16.0934 N/A
12:58 pm 12:58 Sunny 72 22.3 49 9.6 45 45 SSE 7 11 29.89 1012 10 16.0934 N/A
1:58 pm 13:58 Sunny 74 23.2 53 11.4 48 48 SE 9 15 29.88 1012 10 16.0934 N/A
2:58 pm 14:58 Sunny 73 22.8 51 10.7 46 46 S 12 19 29.87 1012 10 16.0934 N/A
3:58 pm 15:58 Mostly Cloudy 71 21.8 53 11.5 52 52 S 13 20 29.88 1012 10 16.0934 N/A
4:58 pm 16:58 Sunny 72 22.4 41 5 32 32 WSW 5 7 29.86 1011 10 16.0934 N/A
5:58 pm 17:58 Sunny 74 23.2 44 6.7 35 35 S 3 6 29.84 1011 10 16.0934 N/A
6:58 pm 18:58 Sunny 73 22.8 43 6.1 34 34 WSW 3 6 29.83 1010 10 16.0934 N/A
7:58 pm 19:58 Sunny 61 16.3 46 7.9 58 58 N 12 19 29.89 1012 10 16.0934 N/A
8:58 pm 20:58 Clear 55 12.5 45 7.4 71 71 NE 12 19 29.9 1013 10 16.0934 N/A
9:58 pm 21:58 Clear 53 11.6 46 7.9 78 78 NNW 7 11 29.93 1014 10 16.0934 N/A
10:58 pm 22:58 Clear 55 12.9 46 7.7 71 71 NNW 5 7 29.91 1013 10 16.0934 N/A
11:58 pm 23:58 Clear 54 12.3 46 7.8 74 74 ENE 10 17 29.93 1014 10 16.0934 N/A

Powered by AerisWeather